Latest Coastal Weather Observations for Troughton Island

IDD60701

Issued at 11:11 pm CST Wednesday 28 September 2016 (issued every 10 minutes, with the page automatically refreshed every 10 minutes)

About coastal observations | Map of coastal stations | Coastal observations for NT | Marine services | Other Formats
Station Details ID: 001007 Name: TROUGHTON ISLAND Lat: -13.75 Lon: 126.15 Height: 6.0 m
Data from the previous 72 hours. | See also: Recent months at Troughton Island
Date/Time
CST
Temp
°C
Wind Pressure Rain since
9am
mm
Weather Cloud Vis
km
Sea
Height
m
Swell
Dir  Spd
kts
Gust
kts
hPa Trend Height
m
Period
s
Dir
28/11:00pm 28.7 WSW 7 8 1010.6 - 0.0 - - - - - - -
28/10:30pm 28.9 W 7 9 1010.5 - 0.0 - - - - - - -
28/10:00pm 28.6 W 7 8 1010.1 - 0.0 - - - - - - -
28/09:30pm 28.6 WSW 8 9 1010.0 - 0.0 - - - - - - -
28/09:00pm 28.6 WSW 8 9 1009.7 - 0.0 - - - - - - -
28/08:30pm 28.7 W 9 11 1009.5 - 0.0 - - - - - - -
28/08:00pm 28.7 W 9 10 1009.3 - 0.0 - - - - - - -
28/07:30pm 28.9 WNW 12 15 1008.9 - 0.0 - - - - - - -
28/07:00pm 29.2 WNW 12 15 1008.4 - 0.0 - - - - - - -
28/06:30pm 29.8 WNW 11 13 1008.3 - 0.0 - - - - - - -
28/06:00pm 30.7 WNW 10 12 1008.4 - 0.0 - - - - - - -
28/05:30pm 31.1 WNW 11 12 1008.2 - 0.0 - - - - - - -
28/05:00pm 31.7 W 10 12 1008.3 - 0.0 - - - - - - -
28/04:30pm 31.8 WNW 11 12 1008.4 - 0.0 - - - - - - -
28/04:00pm 31.9 WNW 10 12 1008.5 - 0.0 - - - - - - -
28/03:30pm 31.7 WNW 10 11 1008.6 - 0.0 - - - - - - -
28/03:00pm 32.0 WNW 10 12 1009.1 - 0.0 - - - - - - -
28/02:30pm 32.4 WNW 10 11 1009.3 - 0.0 - - - - - - -
28/02:00pm 32.3 W 10 11 1009.6 - 0.0 - - - - - - -
28/01:30pm 32.5 W 10 11 1010.0 - 0.0 - - - - - - -
28/01:00pm 32.6 W 9 11 1010.5 - 0.0 - - - - - - -
28/12:30pm 31.9 WSW 10 12 1010.8 - 0.0 - - - - - - -
28/12:00pm 31.9 WSW 11 12 1011.1 - 0.0 - - - - - - -
28/11:30am 32.0 WSW 10 13 1011.5 - 0.0 - - - - - - -
28/11:00am 32.3 SW 11 13 1011.9 - 0.0 - - - - - - -
28/10:30am 31.7 SW 11 13 1012.1 - 0.0 - - - - - - -
28/10:00am 31.2 SW 11 13 1012.1 - 0.0 - - - - - - -
28/09:30am 30.8 SW 11 14 1011.9 - 0.0 - - - - - - -
28/09:00am 30.3 SW 12 14 1011.9 - 0.0 - - - - - - -
28/08:30am 29.7 SW 10 13 1011.5 - 0.0 - - - - - - -
28/08:00am 29.2 SW 11 13 1011.2 - 0.0 - - - - - - -
28/07:30am 28.5 SW 11 13 1010.8 - 0.0 - - - - - - -
28/07:00am 28.1 SW 11 13 1010.4 - 0.0 - - - - - - -
28/06:30am 28.2 WSW 10 11 1010.1 - 0.0 - - - - - - -
28/06:00am 28.1 WSW 11 12 1009.8 - 0.0 - - - - - - -
28/05:30am 28.0 WSW 10 11 1009.5 - 0.0 - - - - - - -
28/05:00am 28.2 WSW 10 12 1009.2 - 0.0 - - - - - - -
28/04:30am 27.9 WSW 9 11 1009.1 - 0.0 - - - - - - -
28/04:00am 28.1 WSW 10 11 1009.1 - 0.0 - - - - - - -
28/03:30am 28.2 WSW 9 11 1009.2 - 0.0 - - - - - - -
28/03:00am 28.3 WSW 10 11 1009.4 - 0.0 - - - - - - -
28/02:30am 28.4 WSW 11 13 1009.8 - 0.0 - - - - - - -
28/02:00am 28.5 WSW 11 13 1010.2 - 0.0 - - - - - - -
28/01:30am 28.5 WSW 11 13 1010.4 - 0.0 - - - - - - -
28/01:00am 28.2 WSW 11 13 1010.8 - 0.0 - - - - - - -
28/12:30am 28.2 WSW 11 13 1010.9 - 0.0 - - - - - - -
28/12:00am 28.4 WSW 11 13 1011.2 - 0.0 - - - - - - -
 
Date/Time
CST
Temp
°C
Wind Pressure Rain since
9am
mm
Weather Cloud Vis
km
Sea
Height
m
Swell
Dir  Spd
kts
Gust
kts
hPa Trend Height
m
Period
s
Dir
27/11:30pm 28.2 WSW 11 13 1011.3 - 0.0 - - - - - - -
27/11:00pm 28.3 W 12 14 1011.5 - 0.0 - - - - - - -
27/10:30pm 28.4 WSW 13 16 1011.3 - 0.0 - - - - - - -
27/10:00pm 28.5 W 13 15 1011.2 - 0.0 - - - - - - -
27/09:30pm 28.6 W 13 14 1010.9 - 0.0 - - - - - - -
27/09:00pm 28.6 W 11 14 1010.7 - 0.0 - - - - - - -
27/08:30pm 28.8 W 12 13 1010.4 - 0.0 - - - - - - -
27/08:00pm 28.8 W 12 13 1009.9 - 0.0 - - - - - - -
27/07:30pm 28.9 W 12 14 1009.6 - 0.0 - - - - - - -
27/07:00pm 29.0 WNW 12 14 1009.2 - 0.0 - - - - - - -
27/06:30pm 29.5 WNW 13 14 1009.0 - 0.0 - - - - - - -
27/06:00pm 30.2 WNW 12 16 1008.8 - 0.0 - - - - - - -
27/05:30pm 30.0 WNW 13 15 1008.7 - 0.0 - - - - - - -
27/05:00pm 30.5 WNW 12 14 1008.6 - 0.0 - - - - - - -
27/04:30pm 31.1 NW 12 14 1008.7 - 0.0 - - - - - - -
27/04:00pm 32.2 NW 11 14 1008.7 - 0.0 - - - - - - -
27/03:30pm 31.9 WNW 11 12 1008.8 - 0.0 - - - - - - -
27/03:00pm 31.8 WNW 11 13 1009.0 - 0.0 - - - - - - -
27/02:30pm 31.4 WNW 11 13 1009.2 - 0.0 - - - - - - -
27/02:00pm 30.9 WNW 11 13 1009.6 - 0.0 - - - - - - -
27/01:30pm 31.1 WNW 10 13 1009.9 - 0.0 - - - - - - -
27/01:00pm 31.5 WNW 9 11 1010.3 - 0.0 - - - - - - -
27/12:30pm 31.3 WNW 10 11 1010.9 - 0.0 - - - - - - -
27/12:00pm 31.4 WNW 10 11 1011.4 - 0.0 - - - - - - -
27/11:30am 30.9 WNW 8 10 1011.9 - 0.0 - - - - - - -
27/11:00am 30.8 WNW 7 8 1012.2 - 0.0 - - - - - - -
27/10:30am 30.7 W 6 7 1012.2 - 0.0 - - - - - - -
27/10:00am 30.4 WSW 6 7 1012.2 - 0.0 - - - - - - -
27/09:30am 30.2 WSW 6 7 1012.1 - 0.0 - - - - - - -
27/09:00am 30.0 WSW 7 7 1011.9 - 0.0 - - - - - - -
27/08:30am 29.0 WSW 7 9 1011.7 - 0.0 - - - - - - -
27/08:00am 28.9 WSW 8 9 1011.4 - 0.0 - - - - - - -
27/07:30am 28.4 WSW 8 9 1011.2 - 0.0 - - - - - - -
27/07:00am 27.8 WSW 8 10 1011.0 - 0.0 - - - - - - -
27/06:30am 27.8 SW 8 10 1010.9 - 0.0 - - - - - - -
27/06:00am 27.8 SW 10 12 1010.6 - 0.0 - - - - - - -
27/05:30am 27.7 SW 10 13 1010.3 - 0.0 - - - - - - -
27/05:00am 27.9 SW 12 14 1009.9 - 0.0 - - - - - - -
27/04:30am 27.8 SW 13 15 1009.6 - 0.0 - - - - - - -
27/04:00am 27.9 SW 13 15 1009.6 - 0.0 - - - - - - -
27/03:30am 27.8 WSW 14 16 1009.5 - 0.0 - - - - - - -
27/03:00am 28.0 WSW 14 16 1009.5 - 0.0 - - - - - - -
27/02:30am 27.9 WSW 14 16 1009.7 - 0.0 - - - - - - -
27/02:00am 28.0 WSW 14 16 1010.1 - 0.0 - - - - - - -
27/01:30am 28.0 WSW 13 16 1010.4 - 0.0 - - - - - - -
27/01:00am 28.1 WSW 14 16 1010.6 - 0.0 - - - - - - -
27/12:30am 28.2 WSW 13 15 1011.0 - 0.0 - - - - - - -
27/12:00am 28.0 WSW 13 15 1011.4 - 0.0 - - - - - - -
 
Date/Time
CST
Temp
°C
Wind Pressure Rain since
9am
mm
Weather Cloud Vis
km
Sea
Height
m
Swell
Dir  Spd
kts
Gust
kts
hPa Trend Height
m
Period
s
Dir
26/11:30pm 28.2 WSW 14 16 1011.6 - 0.0 - - - - - - -
26/11:00pm 28.4 WSW 15 17 1011.6 - 0.0 - - - - - - -
26/10:30pm 28.6 WSW 15 17 1011.4 - 0.0 - - - - - - -
26/10:00pm 28.5 W 14 16 1011.3 - 0.0 - - - - - - -
26/09:30pm 28.5 W 13 15 1011.0 - 0.0 - - - - - - -
26/09:00pm 28.5 W 13 15 1010.5 - 0.0 - - - - - - -
26/08:30pm 28.8 WNW 13 15 1010.3 - 0.0 - - - - - - -
26/08:00pm 28.7 WNW 14 16 1009.7 - 0.0 - - - - - - -
26/07:30pm 28.8 WNW 15 17 1009.4 - 0.0 - - - - - - -
26/07:00pm 28.9 W 15 17 1008.9 - 0.0 - - - - - - -
26/06:30pm 29.7 WNW 14 16 1008.8 - 0.0 - - - - - - -
26/06:00pm 30.1 WNW 13 15 1008.4 - 0.0 - - - - - - -
26/05:30pm 30.7 WNW 13 15 1008.2 - 0.0 - - - - - - -
26/05:00pm 31.1 WNW 13 16 1008.1 - 0.0 - - - - - - -
26/04:30pm 31.3 W 14 16 1008.3 - 0.0 - - - - - - -
26/04:00pm 31.2 WNW 14 15 1008.4 - 0.0 - - - - - - -
26/03:30pm 31.9 W 13 14 1008.5 - 0.0 - - - - - - -
26/03:00pm 31.8 W 11 13 1008.5 - 0.0 - - - - - - -
26/02:30pm 32.3 W 12 13 1008.6 - 0.0 - - - - - - -
26/02:00pm 31.7 WSW 11 14 1008.8 - 0.0 - - - - - - -
26/01:30pm 31.8 WSW 13 15 1009.1 - 0.0 - - - - - - -
26/01:00pm 31.5 W 11 13 1009.7 - 0.0 - - - - - - -
26/12:30pm 31.3 WSW 11 13 1010.1 - 0.0 - - - - - - -
26/12:00pm 30.9 WSW 10 12 1010.5 - 0.0 - - - - - - -
26/11:30am 31.4 WSW 10 13 1010.7 - 0.0 - - - - - - -
26/11:00am 30.9 WSW 11 13 1011.0 - 0.0 - - - - - - -
26/10:30am 30.7 WSW 10 13 1011.0 - 0.0 - - - - - - -
26/10:00am 30.8 WSW 10 11 1011.0 - 0.0 - - - - - - -
26/09:30am 30.3 WSW 11 13 1010.8 - 0.0 - - - - - - -
26/09:00am 30.0 WSW 11 13 1010.7 - 0.0 - - - - - - -
26/08:30am 29.5 WSW 11 13 1010.5 - 0.0 - - - - - - -
26/08:00am 28.7 SW 10 11 1010.3 - 0.0 - - - - - - -
26/07:30am 28.0 SW 10 12 1009.9 - 0.0 - - - - - - -
26/07:00am 27.7 SW 12 14 1009.4 - 0.0 - - - - - - -
26/06:30am 27.6 WSW 13 15 1009.1 - 0.0 - - - - - - -
26/06:00am 27.8 WSW 13 15 1008.6 - 0.0 - - - - - - -
26/05:30am 27.6 WSW 14 16 1008.3 - 0.0 - - - - - - -
26/05:00am 27.9 WSW 12 15 1008.4 - 0.0 - - - - - - -
26/04:30am 27.5 WSW 13 15 1008.4 - 0.0 - - - - - - -
26/04:00am 27.4 WSW 12 14 1008.6 - 0.0 - - - - - - -
26/03:30am 27.6 WSW 11 13 1008.7 - 0.0 - - - - - - -
26/03:00am 27.5 WSW 11 13 1008.9 - 0.0 - - - - - - -
26/02:30am 27.5 SW 11 13 1009.3 - 0.0 - - - - - - -
26/02:00am 27.5 SW 12 14 1009.5 - 0.0 - - - - - - -
26/01:30am 27.7 SW 12 15 1009.7 - 0.0 - - - - - - -
26/01:00am 27.7 WSW 11 13 1010.2 - 0.0 - - - - - - -

Other Formats:

Comma delimited format used in spreadsheet applications
http://www.bom.gov.au/fwo/IDD60701/IDD60701.94102.axf

JavaScript Object Notation format (JSON) in row-major order
http://www.bom.gov.au/fwo/IDD60701/IDD60701.94102.json